User: anonymous   Login
Location: Buckeye Ditch
(40.9104°N, 122.9517°W)
Time: 07:05:03
(UTC+00:00)
Language:

Cosmos 1867 - Orbit

View from above orbital plane
View from above orbital plane
View from above satellite
View from above satellite

Ground track
Ground track

The orbit data is extracted from the following two-line orbital elements,

1 18187U 87060A   24174.14630295 -.00000006  00000-0  35499-4 0  9995
2 18187  65.0108 258.3101 0020962 271.7811  88.0872 14.31308807930621
Epoch (UTC): 22 June 2024 03:30:40
Eccentricity: 0.0020962
inclination: 65.0108°
perigee height: 772 km
apogee height: 802 km
right ascension of ascending node: 258.3101°
argument of perigee: 271.7811°
revolutions per day: 14.31308807
mean anomaly at epoch: 88.0872°
orbit number at epoch: 93062

The dashed part of the orbit path shows where the satellite is in the earth's shadow,  

DLR